sat.trackr.live / text

‹ back to catalog

STARLINK-32343

NORAD 61712 · 2024-196F

PAYLOAD ACTIVE UNKNOWN

§ Identity

Operator
Country
US
Launch date
2024-10-30
Launch site
AFETR
Launch vehicle
Mass (kg)
RCS (m²)

Purposes: comms

External: N2YO · Heavens-Above · Gunter

§ Orbital elements

Epoch: 2026-09-21T01:22:58.456128Z

Period
93.85 min
Inclination
53.1595°
Eccentricity
0.0001364
Mean motion
15.34390654 rev/d
Perigee alt
461.8 km
Apogee alt
463.7 km
Semi-major
6,840.9 km
B*
2.4517e-5
RAAN
271.3719°
Arg perigee
89.4997°
Mean anomaly
270.6162°
Rev number
10,710

§ Raw data

STARLINK-323431 61712U 24196F   26264.05762102  .00000452  00000+0  24517-4 0  99952 61712  53.1595 271.3719 0001364  89.4997 270.6162 15.34390654107100

JSON: /api/v1/satellites/61712 · /tle

For live sub-satellite position, see the globe view (requires WebGL).

§ Visibility from observer

Set your observer location to see the next 7 days of passes ≥ 10°. The values pass through the URL so the page stays shareable.

No JS? Fill the form by hand. The geolocation button needs JavaScript.